Hourly Data Report for June 06, 2012

All times are specified in Local Standard Time (LST). Add 1 hour to adjust for Daylight Saving Time where and when it is observed.

SAINT JOHN A
NEW BRUNSWICK

45°18'58.000" N
65°53'24.000" W
108.80 m
8104901
71609
YSJ

Related Data

No related data is available for this station

Download Data

Hourly Data (June 2012)
Hourly Data Report for June 6, 2012
Temp Definition
°C
Dew Point Temp Definition
°C
Rel Hum Definition
%
Wind Dir Definition
10's deg

Wind Spd Definition
km/h
Visibility Definition
km
Stn Press Definition
kPa
Hmdx Definition


Wind Chill Definition


Weather Definition


TIME
00:00 Legend Double Dagger 7.5 6.8 95 0 19 10.0 99.86     LegendNANA
01:00 Legend Double Dagger 7.4 6.5 94 0 17 10.0 99.85     LegendNANA
02:00 Legend Double Dagger 7.7 6.5 92 36 13 10.0 99.85     Cloudy
03:00 Legend Double Dagger 7.8 6.8 93 36 22 10.0 99.81     LegendNANA
04:00 Legend Double Dagger 7.9 6.8 93 36 24 10.0 99.81     LegendNANA
05:00 Legend Double Dagger 8.0 6.9 93 35 24 10.0 99.85     Cloudy
06:00 Legend Double Dagger 8.4 6.9 90 34 29 10.0 99.87     LegendNANA
07:00 Legend Double Dagger 8.5 6.6 88 35 24 10.0 99.91     LegendNANA
08:00 Legend Double Dagger 8.9 6.7 86 35 29 10.0 99.92     Cloudy
09:00 Legend Double Dagger 9.5 7.0 84 35 30 10.0 99.93     Rain Showers
10:00 Legend Double Dagger 10.0 6.7 80 35 31 10.0 99.97     LegendNANA
11:00 Legend Double Dagger 10.6 7.5 81 35 23 10.0 99.99     Cloudy
12:00 Legend Double Dagger 10.1 7.5 84 1 25 10.0 100.01     Moderate Rain Showers
13:00 Legend Double Dagger 11.1 7.6 79 36 17 10.0 100.00     Rain Showers
14:00 Legend Double Dagger 11.4 7.2 75 1 31 10.0 99.98     Rain Showers
15:00 Legend Double Dagger 11.7 6.5 70 0 31 10.0 99.97     Rain Showers
16:00 Legend Double Dagger 11.0 7.5 79 1 21 10.0 100.01     Moderate Rain Showers
17:00 Legend Double Dagger 10.7 6.9 77 1 28 10.0 100.03     Rain Showers
18:00 Legend Double Dagger 9.4 6.3 81 1 27 10.0 100.06     LegendNANA
19:00 Legend Double Dagger 9.3 6.1 80 3 18 10.0 100.12     LegendNANA
20:00 Legend Double Dagger 8.6 6.1 84 3 21 10.0 100.14     Cloudy
21:00 Legend Double Dagger 8.3 6.3 87 1 19 10.0 100.19     LegendNANA
22:00 Legend Double Dagger 8.1 6.1 87 36 21 10.0 100.19     LegendNANA
23:00 Legend Double Dagger 7.9 6.4 90 2 20 10.0 100.21     Cloudy

Notes on Data Quality.

Legend

  • E = Estimated
  • M = Missing
  • NA = Not Available
  • ‡ = Partner data that is not subject to review by the National Climate Archives
Date modified: